Location: Isola Pescaroli
(45.0500°N, 10.1667°E)
Time: 15:25:26
(UTC+00:00)

Cosmos 2184 Rocket - Pass Details

Date: 03 March 2021
Orbit: 960 x 1001 km, 82.9° (Epoch: 22 April)

Event Time Altitude Azimuth Distance (km) Brightness Sun altitude
Rises 17:53:29 0° 188° (S) 3,628 7.1 -8.6°
Reaches altitude 10° 17:55:58 10° 189° (S) 2,687 6.4 -9.0°
Maximum altitude 18:02:08 83° 279° (W) 977 4.1 -10.1°
Drops below altitude 10° 18:08:22 10° 7° (N) 2,723 6.3 -11.2°
Sets 18:10:54 0° 8° (N) 3,680 7.0 -11.6°
